Location: Buckeye Ditch
(40.9104°N, 122.9517°W)
Time: 14:53:38
(UTC+00:00)

Transit 2A - Pass Details

Date: 19 May 2025
Orbit: 599 x 947 km, 66.7° (Epoch: 15 June)

Event Time Altitude Azimuth Distance (km) Brightness Sun altitude
Rises 01:10:06 0° 319° (NW) 2,902 9.7 23.6°
Reaches altitude 10° 01:12:30 10° 308° (NW) 2,024 9.3 23.2°
Maximum altitude 01:16:27 30° 248° (WSW) 1,193 8.4 22.4°
Drops below altitude 10° 01:20:40 10° 188° (S) 2,165 8.4 21.6°
Sets 01:23:20 0° 178° (S) 3,142 9.1 21.1°
